• In Portugal
  • List of Countries
  • For 7 days
  • Water Temperature
  • Satellite Maps
  • Weather Map
  • Weather Widgets
  • user-avatar
    Login

    Hourly Weather Zandzhan

    Today, 20 July, Friday

    Time Temperature Precipitation Wind Pressure Humidity
    00:00 +31°C° 0 mm 2 mps 615 mmHg 26%
    01:00 +30°C° 0 mm 1 mps 615 mmHg 27%
    02:00 +29°C° 0 mm 1 mps 615 mmHg 28%
    03:00 +28°C° 0 mm 1 mps 614 mmHg 29%
    04:00 +28°C° 0 mm 1 mps 615 mmHg 28%
    05:00 +28°C° 0 mm 1 mps 615 mmHg 28%
    06:00 +28°C° 0 mm 1 mps 615 mmHg 28%
    07:00 +30°C° 0 mm 2 mps 616 mmHg 24%
    08:00 +33°C° 0 mm 3 mps 616 mmHg 20%
    09:00 +35°C° 0 mm 4 mps 617 mmHg 15%
    10:00 +36°C° 0 mm 5 mps 617 mmHg 14%
    11:00 +37°C° 0 mm 5 mps 617 mmHg 12%
    12:00 +40°C° 0 mm 5 mps 618 mmHg 11%
    13:00 +40°C° 0 mm 5 mps 617 mmHg 10%
    14:00 +40°C° 0 mm 5 mps 617 mmHg 10%
    15:00 +40°C° 0 mm 4 mps 617 mmHg 10%
    16:00 +38°C° 0 mm 4 mps 617 mmHg 11%
    17:00 +38°C° 0 mm 4 mps 616 mmHg 13%
    18:00 +37°C° 0 mm 4 mps 616 mmHg 15%
    19:00 +36°C° 0 mm 3 mps 616 mmHg 18%
    20:00 +34°C° 0 mm 3 mps 616 mmHg 21%
    21:00 +32°C° 0 mm 2 mps 616 mmHg 23%
    22:00 +31°C° 0 mm 2 mps 615 mmHg 26%
    23:00 +30°C° 0 mm 2 mps 615 mmHg 28%

    Tomorrow, 21 July, Saturday

    Time Temperature Precipitation Wind Pressure Humidity
    00:00 +29°C° 0 mm 2 mps 615 mmHg 31%
    01:00 +28°C° 0 mm 1 mps 614 mmHg 32%
    02:00 +27°C° 0 mm 1 mps 614 mmHg 34%
    03:00 +26°C° 0 mm 1 mps 614 mmHg 36%
    04:00 +26°C° 0 mm 1 mps 614 mmHg 36%
    05:00 +26°C° 0 mm 1 mps 614 mmHg 37%
    06:00 +26°C° 0 mm 2 mps 615 mmHg 37%
    07:00 +28°C° 0 mm 2 mps 615 mmHg 32%
    08:00 +30°C° 0 mm 3 mps 616 mmHg 26%
    09:00 +33°C° 0 mm 4 mps 617 mmHg 21%
    10:00 +34°C° 0 mm 4 mps 617 mmHg 18%
    11:00 +36°C° 0 mm 5 mps 617 mmHg 16%
    12:00 +38°C° 0 mm 6 mps 617 mmHg 14%
    13:00 +39°C° 0 mm 6 mps 617 mmHg 14%
    14:00 +39°C° 0 mm 6 mps 617 mmHg 14%
    15:00 +39°C° 0 mm 6 mps 617 mmHg 14%
    16:00 +37°C° 0 mm 5 mps 616 mmHg 20%
    17:00 +35°C° 0 mm 5 mps 615 mmHg 26%
    18:00 +34°C° 0 mm 5 mps 615 mmHg 31%
    19:00 +32°C° 0 mm 4 mps 615 mmHg 36%
    20:00 +29°C° 0 mm 4 mps 615 mmHg 40%
    21:00 +27°C° 0 mm 3 mps 615 mmHg 44%
    22:00 +26°C° 0 mm 3 mps 615 mmHg 49%
    23:00 +25°C° 0 mm 3 mps 614 mmHg 53%

    Day after tomorrow, 22 July, Sunday

    Time Temperature Precipitation Wind Pressure Humidity
    00:00 +24°C° 0 mm 3 mps 614 mmHg 58%
    01:00 +24°C° 0 mm 3 mps 614 mmHg 61%
    02:00 +22°C° 0 mm 3 mps 614 mmHg 64%
    03:00 +21°C° 0 mm 3 mps 614 mmHg 67%
    04:00 +21°C° 0 mm 3 mps 614 mmHg 67%
    05:00 +21°C° 0 mm 3 mps 614 mmHg 68%
    06:00 +21°C° 0 mm 3 mps 614 mmHg 69%
    07:00 +22°C° 0 mm 3 mps 614 mmHg 60%
    08:00 +25°C° 0 mm 3 mps 615 mmHg 51%
    09:00 +27°C° 0 mm 3 mps 615 mmHg 42%
    10:00 +29°C° 0 mm 4 mps 616 mmHg 35%
    11:00 +32°C° 0 mm 4 mps 616 mmHg 29%
    12:00 +34°C° 0 mm 4 mps 616 mmHg 23%
    13:00 +35°C° 0 mm 5 mps 616 mmHg 22%
    14:00 +36°C° 0 mm 5 mps 616 mmHg 20%
    15:00 +36°C° 0 mm 6 mps 615 mmHg 19%
    16:00 +35°C° 0 mm 5 mps 615 mmHg 23%
    17:00 +34°C° 0 mm 5 mps 614 mmHg 27%
    18:00 +32°C° 0 mm 4 mps 614 mmHg 31%
    19:00 +30°C° 0 mm 4 mps 614 mmHg 36%
    20:00 +28°C° 0 mm 3 mps 614 mmHg 41%
    21:00 +26°C° 0 mm 3 mps 614 mmHg 46%
    22:00 +25°C° 0 mm 3 mps 614 mmHg 50%
    23:00 +25°C° 0 mm 3 mps 613 mmHg 54%

    23 July, Monday

    Time Temperature Precipitation Wind Pressure Humidity
    00:00 +24°C° 0 mm 3 mps 613 mmHg 58%
    01:00 +22°C° 0 mm 3 mps 613 mmHg 59%
    02:00 +23°C° 0 mm 2 mps 613 mmHg 61%
    03:00 +21°C° 0 mm 2 mps 613 mmHg 63%
    04:00 +21°C° 0 mm 2 mps 613 mmHg 63%
    05:00 +21°C° 0 mm 2 mps 613 mmHg 62%
    06:00 +21°C° 0 mm 2 mps 613 mmHg 62%
    07:00 +24°C° 0 mm 2 mps 613 mmHg 54%
    08:00 +26°C° 0 mm 2 mps 614 mmHg 45%
    09:00 +27°C° 0 mm 3 mps 614 mmHg 37%
    10:00 +30°C° 0 mm 3 mps 615 mmHg 31%
    11:00 +33°C° 0 mm 4 mps 615 mmHg 24%
    12:00 +35°C° 0 mm 5 mps 615 mmHg 18%
    13:00 +36°C° 0 mm 5 mps 615 mmHg 16%
    14:00 +36°C° 0 mm 5 mps 615 mmHg 15%
    15:00 +37°C° 0 mm 5 mps 615 mmHg 13%
    16:00 +36°C° 0 mm 5 mps 614 mmHg 17%
    17:00 +35°C° 0 mm 5 mps 614 mmHg 20%
    18:00 +34°C° 0 mm 5 mps 614 mmHg 24%
    19:00 +32°C° 0 mm 4 mps 614 mmHg 28%
    20:00 +29°C° 0 mm 4 mps 614 mmHg 32%
    21:00 +28°C° 0 mm 3 mps 614 mmHg 36%
    22:00 +27°C° 0 mm 3 mps 614 mmHg 38%
    23:00 +26°C° 0 mm 2 mps 614 mmHg 41%

    24 July, Tuesday

    Time Temperature Precipitation Wind Pressure Humidity
    00:00 +25°C° 0 mm 2 mps 613 mmHg 44%
    01:00 +24°C° 0 mm 2 mps 613 mmHg 46%
    02:00 +24°C° 0 mm 2 mps 613 mmHg 48%
    03:00 +23°C° 0 mm 2 mps 613 mmHg 50%
    04:00 +23°C° 0 mm 2 mps 613 mmHg 51%
    05:00 +23°C° 0 mm 2 mps 613 mmHg 51%
    06:00 +23°C° 0 mm 2 mps 614 mmHg 51%
    07:00 +25°C° 0 mm 2 mps 614 mmHg 45%
    08:00 +26°C° 0 mm 2 mps 615 mmHg 40%
    09:00 +28°C° 0 mm 2 mps 616 mmHg 34%
    10:00 +30°C° 0 mm 3 mps 616 mmHg 30%
    11:00 +33°C° 0 mm 3 mps 616 mmHg 25%
    12:00 +34°C° 0 mm 3 mps 616 mmHg 20%
    13:00 +35°C° 0 mm 3 mps 616 mmHg 19%
    14:00 +36°C° 0 mm 4 mps 616 mmHg 18%
    15:00 +37°C° 0 mm 4 mps 616 mmHg 16%
    16:00 +35°C° 0 mm 4 mps 616 mmHg 21%
    17:00 +34°C° 0 mm 4 mps 616 mmHg 25%
    18:00 +33°C° 0 mm 4 mps 616 mmHg 30%
    19:00 +32°C° 0 mm 4 mps 616 mmHg 35%
    20:00 +29°C° 0 mm 4 mps 615 mmHg 40%
    21:00 +27°C° 0 mm 4 mps 615 mmHg 46%
    22:00 +27°C° 0 mm 3 mps 615 mmHg 47%
    23:00 +26°C° 0 mm 3 mps 615 mmHg 48%

    25 July, Wednesday

    Time Temperature Precipitation Wind Pressure Humidity
    00:00 +25°C° 0 mm 3 mps 615 mmHg 50%
    01:00 +25°C° 0 mm 3 mps 615 mmHg 51%
    02:00 +24°C° 0 mm 3 mps 615 mmHg 52%
    03:00 +24°C° 0 mm 3 mps 615 mmHg 53%
    04:00 +24°C° 0 mm 3 mps 616 mmHg 53%
    05:00 +24°C° 0 mm 3 mps 616 mmHg 53%
    06:00 +23°C° 0 mm 2 mps 616 mmHg 52%
    07:00 +26°C° 0 mm 3 mps 617 mmHg 45%
    08:00 +28°C° 0 mm 3 mps 618 mmHg 37%
    09:00 +30°C° 0 mm 3 mps 618 mmHg 30%
    10:00 +33°C° 0 mm 3 mps 618 mmHg 27%
    11:00 +34°C° 0 mm 4 mps 618 mmHg 23%
    12:00 +36°C° 0 mm 4 mps 619 mmHg 20%
    13:00 +37°C° 0 mm 4 mps 618 mmHg 19%
    14:00 +37°C° 0 mm 4 mps 618 mmHg 18%
    15:00 +39°C° 0 mm 5 mps 618 mmHg 17%
    16:00 +37°C° 0 mm 5 mps 618 mmHg 20%
    17:00 +36°C° 0 mm 6 mps 618 mmHg 23%
    18:00 +35°C° 0 mm 6 mps 617 mmHg 25%
    19:00 +34°C° 0 mm 5 mps 617 mmHg 30%
    20:00 +32°C° 0 mm 4 mps 617 mmHg 34%
    21:00 +30°C° 0 mm 3 mps 617 mmHg 39%
    22:00 +29°C° 0 mm 3 mps 617 mmHg 39%
    23:00 +29°C° 0 mm 3 mps 617 mmHg 39%
    Show more